Location: LC-39B
(28.6273°N, 80.6211°W)
Time: 02:36:27
(UTC+00:00)

ISS - Visible Passes

Search period start: 25 September 2017 00:00
Search period end: 05 October 2017 00:00
Orbit: 401 x 407 km, 51.6° (Epoch: 25 September)

Date Brightness Start Highest point End Pass type
(mag) Time Alt. Az. Time Alt. Az. Time Alt. Az.
25 Sep -2.1 00:42:32 10° WSW 00:45:30 31° NW 00:47:03 20° N visible
25 Sep -3.7 23:49:52 10° SW 23:53:07 76° NW 23:56:22 10° NE visible
27 Sep -0.8 00:35:46 10° WNW 00:37:25 13° NW 00:39:05 10° N visible
27 Sep -1.6 23:42:08 10° W 23:44:53 25° NW 23:47:39 10° NNE visible
29 Sep -0.7 23:35:57 10° NW 23:36:47 11° NW 23:37:37 10° NNW visible
